Location: Borgo
(42.3939°N, 9.2791°E)
Time: 21:57:12
(UTC+00:00)

SJ-11-01 - Pass Details

Date: 24 January 2021
Orbit: 684 x 700 km, 98.0° (Epoch: 03 March)

Event Time Altitude Azimuth Distance (km) Brightness Sun altitude
Rises 18:09:33 0° 164° (SSE) 3,053 7.5 -18.9°
Reaches altitude 10° 18:11:47 10° 164° (SSE) 2,138 6.7 -19.3°
Maximum altitude 18:16:28 86° 77° (ENE) 697 4.2 -20.2°
Drops below altitude 10° 18:21:11 10° 348° (NNW) 2,145 6.9 -21.0°
Sets 18:23:26 0° 348° (NNW) 3,064 7.7 -21.5°
